Showing default

IRIDE FM1, 66695

Orbit data source: Space-Track

IRIDE FM1, 66695 is an Italian payload satellite in SSO that was launched on Fri, 28 Nov 2025 UTC via an FALCON 9 launch vehicle from the Air Force Western Test Range (AFWTR). Payload-class satellites include a variety of spacecraft equipped with specific instruments for various scientific and technological missions. These include communications satellites like Starlink; space stations such as the ISS; scientific satellites like the Hubble; Earth observation satellites from companies like Planet Labs, Umbra, and HawkEye 360; GPS; miniature CubeSats for education and research; and military/defense satellites.

Loading next visibility...
Identifier
66695, 2025-276AF
Orbit
SSO
Country
Flag of ITIT
Related business
Manufacturer
OHB-I
Mission
Operational Commercial Technology
Bus & Motor
EAGLET, Unknown motor
Mass
25 kg wet, 25 kg dry
Launch date (UTC)
2025-11-28 (2 months ago)
Launch vehicle
FALCON 9
Launch site
Air Force Western Test Range (AFWTR)
Object type
Payload
Rocket body
Debris
Shape & HBR
Box + 2 Pan, 1.0 m
Radar Cross Section
0.368 m²

Expand to show TLE details & history
Last TLE update: 14 hours ago

TLE from 14 hours ago
0 IRIDE FM1
1 66695U 25276AF  26034.64522817  .00010438  00000-0  49993-3 0  9997
2 66695  97.4335 110.5610 0002450  79.6484 280.5026 15.19124437 10155
Epoch: 2026-02-03T15:29Z
TLE epoch observation values (Epoch: 2026-02-03T15:29:07.713Z)
Latitude
-0.00012°
Longitude
104.45569°
Altitude
511.267 km
Speed
7.608 km/s
True Right ascension
07h 22m 14s
True Declination
0° 00' 00"
Sunlit
Object was in full shadow at epoch
Visualization orbit readout
Latitude
Unknown
Longitude
Unknown
Altitude
Unknown
Speed
Unknown
Apparent Right ascension
Unknown
Apparent Declination
Unknown
Sunlit
N/A
Visualization observer readout
Local Sidereal Time
07:05:43
Azimuth
Unknown
Elevation
Unknown
Doppler factor
Unknown
Orbital elements
Apogee altitude
507.14 km
Perigee altitude
503.767 km
Semi-major axis
6,883.591 km
Eccentricity
0.00025
Inclination
97.4335°
RAAN
110.561°
Arg. of periapsis
79.6484°
True anomaly
280.47499°
Mean anomaly
280.5026°
Eccentric anomaly
280.4888°
Mean motion
3.80032 °/min
Orbital period
94.73 mins
BSTAR
0.00049993
Loading maneuver chart data...
Computing Atmospheric mass density...
Loading historical data...
Loading historical data...
Loading historical data...
Loading historical data...
Loading historical data...
Loading historical data...
Loading historical data...

Documentation

Showing up to 5 results
|